Temperature
11 11 10 10 9 9 9 8 8 8 8 8 8 8 8 9 9 9 9 9 9 9 9 10 10 9 9 9 9 9 9 9 9 9 9 9 10 10 10 10 11 11 11
11 10 10 9 9 9 8 8 8 8 8 8 8 8 8 8 8 8 9 9 9 9 9 9 9 9 9 9 9 9 9 9 9 9 8 8 9 9 10 10 10 10 11
10 10 10 9 9 8 8 8 7 7 7 7 7 7 7 8 8 8 8 8 8 9 9 9 9 9 9 8 8 8 8 8 8 9 9 8 8 9 9 10 10 10 10
10 10 9 9 9 8 8 7 7 7 7 7 7 7 7 7 7 7 7 8 8 8 8 8 9 8 8 8 8 8 8 8 8 8 9 9 9 8 8 9 9 9 10
10 10 9 9 8 8 7 7 7 6 6 6 6 6 6 7 7 7 7 7 8 8 8 8 8 8 8 8 8 8 8 8 8 8 8 8 8 9 8 8 9 9 9
10 9 9 8 8 7 7 7 7 6 6 6 6 6 6 6 6 6 6 7 7 7 8 7 7 7 7 7 7 7 7 8 8 8 8 8 8 8 8 8 8 8 9
9 9 8 8 7 7 7 7 6 6 6 6 6 6 6 6 6 6 6 6 7 7 7 7 7 7 7 7 7 7 7 7 7 7 7 8 8 8 8 8 8 8 8
9 9 8 7 7 7 7 6 6 6 6 6 6 6 6 6 6 6 6 6 6 6 6 7 7 7 7 7 7 7 7 7 7 7 7 7 7 8 8 8 8 7 7
9 8 8 7 7 7 7 6 6 6 6 5 6 6 6 6 6 6 6 6 6 6 6 6 6 6 6 6 6 6 6 7 7 7 7 7 7 7 7 7 7 7 7
9 8 8 7 7 7 7 6 6 6 6 5 5 5 5 5 5 5 5 5 5 5 5 6 6 6 6 6 6 6 6 6 6 7 7 7 7 7 7 7 7 7 7
9 8 8 7 7 7 6 6 6 6 5 5 5 5 5 5 5 5 5 5 5 5 5 5 5 5 5 6 6 6 6 6 6 6 6 6 7 7 7 7 7 7 7
8 8 7 7 7 6 6 6 6 5 5 5 5 5 5 5 5 5 5 5 5 5 5 5 5 5 5 5 5 6 6 6 6 6 6 6 6 6 7 7 7 7 7
8 8 7 7 7 6 6 6 6 5 5 5 5 5 5 5 5 5 5 5 5 5 4 4 4 5 5 5 5 5 5 5 5 5 6 6 6 6 6 6 7 6 6
8 7 7 7 6 6 6 6 6 5 5 5 5 5 5 5 4 4 4 4 4 4 4 4 4 4 5 5 5 5 5 5 5 5 5 5 6 6 6 6 6 6 6
8 7 7 6 6 6 6 6 5 5 5 5 4 4 4 4 4 4 4 4 4 4 4 4 4 4 4 4 4 4 4 4 5 5 5 5 5 5 6 6 6 6 6
7 7 6 6 6 6 6 5 5 5 5 4 4 4 4 4 4 4 4 4 4 4 4 4 4 4 4 4 4 4 4 4 4 4 4 5 5 5 5 5 5 5 5
7 6 6 6 6 6 5 5 5 5 4 4 4 4 4 4 4 4 4 3 3 3 3 3 3 3 4 4 4 4 4 4 4 4 4 4 4 5 5 5 5 5 5
6 6 6 5 5 5 5 5 5 4 4 4 4 3 3 3 3 3 3 3 3 3 3 3 3 3 3 3 3 3 4 4 4 4 4 4 4 4 4 4 4 4 4
6 5 5 5 5 5 4 4 4 4 4 3 3 3 3 3 3 3 3 3 3 2 2 2 2 2 3 3 3 3 3 3 3 3 3 3 3 3 4 4 4 4 4
5 5 5 5 4 4 4 4 4 4 3 3 3 3 3 3 3 3 2 2 2 2 2 2 2 2 2 2 3 3 3 3 3 3 3 3 3 3 3 3 4 4 4
5 5 4 4 4 4 4 3 3 3 3 3 3 3 3 2 2 2 2 2 2 1 1 1 1 2 2 2 2 2 2 2 2 2 3 3 3 3 3 3 3 3 3
4 4 4 4 3 3 3 3 3 3 2 2 2 2 2 2 2 1 1 1 1 1 1 1 1 1 1 2 2 2 2 2 2 2 2 2 2 3 3 3 3 3 3
4 4 3 3 3 3 3 2 2 2 2 2 2 2 1 1 1 1 1 1 1 1 1 1 1 1 1 1 1 1 1 1 1 2 2 2 2 2 2 2 3 2 2
3 3 3 3 2 2 2 2 2 2 2 1 1 1 1 1 1 0 0 0 0 0 0 0 0 0 1 1 1 1 1 1 1 1 2 2 2 2 2 2 2 2 2
3 3 2 2 2 2 2 1 1 1 1 1 1 1 0 0 0 0 -0 -0 -0 -0 -0 -0 0 0 0 0 0 0 1 1 1 1 1 1 1 1 1 2 1 1 1
2 2 2 2 1 1 1 1 1 1 1 0 0 0 -0 -0 -0 -0 -0 -0 -1 -1 -0 -0 -0 -0 0 0 0 0 1 1 1 1 1 1 1 1 1 1 1 1 1
Wind_Speed
3 2 2 2 2 3 3 3 4 4 3 3 3 3 4 4 4 4 5 6 6 6 5 5 5 6 5 5 5 3 4 3 2 1 1 3 4 5 5 5 5 6 9
2 2 3 3 3 4 4 4 4 4 4 4 4 4 4 4 4 4 5 6 6 6 6 6 6 6 5 6 6 4 3 3 3 2 1 1 2 4 5 4 5 6 6
3 3 4 4 3 4 4 4 4 5 5 5 4 4 3 3 3 4 4 5 6 6 6 6 6 6 6 6 6 6 5 5 4 4 3 3 3 2 3 5 5 6 6
3 3 4 4 4 4 3 4 4 5 5 5 4 5 5 5 5 4 4 4 5 5 6 6 6 7 6 7 7 6 5 6 5 5 4 4 3 2 2 3 4 6 7
2 3 3 4 4 3 3 4 4 5 5 5 5 5 6 5 4 4 5 4 4 5 5 5 5 6 6 7 7 7 7 5 6 5 4 4 3 4 3 4 4 4 5
2 3 3 3 4 4 4 4 5 5 5 5 5 5 6 6 6 6 5 4 3 3 4 4 5 6 6 7 7 7 7 6 6 5 5 4 4 4 4 5 5 5 4
2 3 3 4 5 5 5 5 5 5 5 4 4 5 6 6 7 7 6 5 3 3 4 5 5 5 5 6 6 7 7 7 7 7 6 6 6 5 4 4 5 4 3
2 3 3 5 5 5 5 4 5 5 4 4 4 5 5 4 5 6 5 4 4 4 5 5 5 5 5 6 6 6 7 7 7 8 7 5 5 5 5 5 4 4 4
2 3 3 5 5 5 4 4 5 5 4 4 5 5 4 4 5 5 4 4 4 4 5 5 5 5 6 6 6 5 6 6 7 7 7 6 5 5 5 5 5 5 6
3 4 4 5 5 4 4 4 4 4 4 4 4 4 3 3 4 4 4 4 4 4 4 4 4 4 5 6 6 5 6 6 6 5 6 6 5 5 5 5 5 5 5
4 4 5 5 5 4 4 4 4 4 4 4 4 4 3 3 3 3 3 3 3 4 4 4 4 4 5 5 5 5 5 6 6 5 6 7 6 6 5 5 5 5 4
4 4 5 5 4 4 4 4 3 4 4 4 3 3 3 2 2 3 3 2 3 3 3 3 3 4 4 5 5 5 5 5 6 6 6 7 6 7 6 5 6 5 5
3 4 4 4 4 4 4 3 3 3 3 3 2 2 2 2 2 2 2 2 2 3 3 3 3 4 4 4 4 4 4 5 5 5 6 6 6 7 5 5 5 5 5
3 3 4 4 4 4 4 4 4 3 3 3 2 2 2 2 2 1 1 1 1 2 2 2 3 3 3 3 3 4 4 4 4 4 5 5 6 6 5 4 5 4 4
5 5 5 5 4 4 5 4 4 3 3 2 2 2 2 2 1 1 1 1 1 1 1 1 2 2 2 3 3 3 4 3 4 4 5 6 6 6 5 5 5 5 4
5 5 5 5 5 5 5 5 5 4 3 2 2 2 2 2 1 1 1 1 1 1 1 2 2 2 3 3 4 4 3 3 4 4 4 4 4 5 6 7 7 8 7
5 5 5 5 5 4 4 4 4 4 3 3 2 2 2 2 2 1 1 1 1 1 1 2 2 2 2 3 4 4 3 3 3 3 3 4 3 3 3 4 6 7 10
4 5 5 5 5 5 4 4 4 4 4 3 3 3 2 2 2 2 1 1 1 1 2 1 1 1 2 4 4 4 3 2 3 3 4 4 3 3 3 3 3 4 5
4 4 4 4 4 4 4 4 4 4 4 4 4 3 2 2 3 2 2 2 2 2 2 2 1 1 2 3 4 4 2 2 3 4 3 3 3 4 3 3 2 3 2
3 4 4 4 4 4 4 4 4 4 4 5 4 3 3 2 3 3 3 2 2 2 2 2 2 2 2 4 5 4 1 2 3 3 3 4 4 4 4 3 3 3 3
3 4 4 4 4 4 4 4 4 4 4 4 4 4 3 3 3 3 2 2 2 2 2 2 3 2 3 4 5 5 2 2 3 3 3 3 4 5 5 4 4 5 3
4 4 4 4 4 4 3 3 4 4 4 4 5 5 3 3 3 3 3 3 2 2 3 3 3 2 3 4 4 5 5 5 3 4 3 3 5 4 4 3 3 4 2
3 3 3 4 4 3 2 3 4 4 4 4 4 5 4 3 3 3 3 3 2 2 2 2 3 3 3 3 5 5 5 6 4 3 4 4 4 3 2 2 4 3 2
3 3 3 3 4 3 2 2 3 3 3 4 4 4 4 4 3 3 3 2 2 2 2 3 3 3 3 3 2 2 2 4 3 2 2 2 2 1 0 2 2 2 2
2 2 3 4 4 3 3 3 3 3 3 3 4 4 3 4 3 3 3 3 3 3 4 3 3 3 4 5 6 5 3 2 3 3 1 0 1 1 1 1 1 1 1
3 3 3 4 4 3 3 3 2 2 2 3 4 3 3 3 3 3 4 5 6 8 8 7 6 5 6 8 8 7 7 7 4 2 1 1 2 2 2 2 1 1 2
Wind_Direction
252 258 271 284 292 297 299 300 288 282 286 279 266 257 250 246 244 232 230 229 224 212 202 202 195 188 192 196 196 198 195 201 191 208 267 273 241 229 225 219 207 202 198
264 280 295 300 296 289 287 297 297 288 282 278 268 252 255 250 241 236 231 224 220 215 211 198 198 192 191 196 198 192 197 209 187 183 190 253 266 247 233 223 214 209 198
284 285 287 288 299 293 284 295 294 289 284 282 282 275 276 272 261 248 237 225 220 212 210 206 203 196 194 197 200 200 200 203 208 198 195 206 227 262 247 227 221 212 209
276 284 289 294 297 294 291 286 289 286 291 282 275 267 262 259 258 248 242 232 225 217 212 206 205 202 200 198 203 207 199 198 209 219 224 224 217 221 252 246 226 218 216
283 294 302 300 303 308 303 290 287 284 287 282 274 270 269 263 261 257 251 241 230 222 215 209 202 208 208 202 205 207 205 204 211 219 226 233 241 230 229 249 241 238 230
301 291 302 313 308 309 299 288 281 287 285 275 269 264 268 265 264 260 247 236 225 222 214 212 210 211 216 211 206 209 209 210 215 222 224 219 220 226 229 238 233 239 244
300 303 313 311 306 303 294 284 281 289 289 284 274 265 265 258 252 252 243 233 228 228 214 214 210 211 218 216 212 211 212 209 212 222 229 229 228 226 231 231 238 251 257
288 293 300 296 296 292 288 282 281 282 287 293 287 275 267 261 255 252 244 233 234 228 211 204 209 212 217 222 214 215 218 214 214 224 227 235 238 231 229 225 228 250 261
302 301 297 298 296 289 277 271 272 275 284 291 291 281 264 261 262 258 251 230 227 229 212 204 207 213 217 218 214 221 223 218 220 220 224 233 238 235 234 222 214 223 247
317 310 303 297 300 293 278 279 273 275 284 283 277 286 273 264 253 248 246 232 220 220 207 207 207 217 223 220 218 221 223 223 227 224 223 232 236 234 231 222 222 221 227
304 305 307 305 300 297 286 286 282 286 287 284 280 283 283 278 258 246 240 228 220 211 209 209 213 219 221 220 220 224 223 225 228 227 228 233 234 236 233 220 218 222 219
310 312 313 312 312 303 297 296 292 293 290 286 290 291 293 286 269 254 247 231 227 218 213 205 218 228 229 223 218 225 234 236 234 231 230 235 237 241 234 215 214 218 219
305 315 318 316 320 324 323 322 319 309 302 302 306 311 315 311 293 277 254 228 225 226 225 219 227 233 232 229 220 222 236 242 242 238 234 238 240 242 230 214 215 218 223
331 330 324 320 324 333 332 333 333 329 325 328 323 321 313 314 298 304 307 263 217 218 226 231 234 231 234 238 237 235 237 243 247 249 245 241 243 232 222 217 216 215 214
341 337 331 328 334 344 341 341 339 338 346 350 333 324 334 340 340 358 352 1 7 288 234 235 248 243 243 242 245 244 248 244 252 259 259 257 248 234 225 223 216 210 211
334 338 338 336 339 342 344 347 346 353 14 11 345 337 353 354 2 17 13 359 335 308 272 244 247 251 262 269 276 273 266 250 248 256 267 267 262 247 235 231 228 219 214
334 333 333 332 335 340 345 342 343 359 16 8 353 353 1 356 349 345 12 336 299 302 289 267 249 247 246 269 281 286 283 259 254 257 267 274 264 258 240 238 237 232 227
330 333 338 339 343 347 349 347 360 12 12 4 359 358 0 358 353 3 342 308 308 305 300 296 276 272 263 275 286 300 304 293 287 274 262 259 256 245 235 235 238 240 235
326 337 336 336 344 346 350 0 6 7 6 359 352 345 343 346 348 347 341 325 320 313 306 293 282 277 267 276 287 297 302 300 300 288 277 262 255 253 237 221 230 240 240
349 347 345 349 348 344 356 4 358 359 352 348 346 348 351 352 346 339 336 333 326 310 308 305 288 264 251 272 288 299 289 295 297 293 283 272 262 267 239 218 209 216 225
344 348 343 336 330 342 359 357 354 345 340 349 356 354 354 346 336 334 333 331 328 327 317 307 298 288 273 282 286 290 283 266 279 281 280 267 264 264 253 236 217 208 205
339 338 334 326 330 348 358 352 339 334 349 359 357 349 343 334 332 333 327 326 325 320 310 300 301 303 295 284 282 285 285 285 272 269 268 262 265 270 260 237 189 173 177
316 320 317 315 322 338 351 334 327 340 350 357 351 345 344 340 333 326 321 320 318 305 301 298 294 298 303 294 286 288 290 295 286 268 269 284 289 298 279 177 165 164 169
309 317 318 312 311 318 330 324 332 341 350 341 335 339 342 340 339 335 327 318 309 300 294 294 297 301 301 300 300 292 299 310 311 302 295 293 306 311 185 160 154 163 175
312 310 299 295 299 309 318 330 339 342 335 329 326 328 330 326 327 326 320 311 301 290 291 284 280 287 293 296 302 298 295 293 280 293 284 206 176 155 162 154 147 148 156
310 306 298 300 304 310 312 322 331 330 321 320 319 316 314 315 313 310 315 315 305 308 301 293 286 286 285 295 304 309 309 310 306 311 181 200 198 195 191 186 178 175 179
Height
1457 1457 1456 1455 1454 1453 1451 1450 1447 1446 1444 1443 1442 1441 1440 1440 1440 1441 1442 1443 1444 1446 1447 1448 1450 1452 1454 1456 1458 1461 1463 1465 1467 1468 1469 1470 1471 1472 1473 1475 1476 1477 1478
1453 1453 1452 1451 1450 1448 1447 1445 1443 1441 1440 1439 1438 1437 1435 1435 1436 1436 1437 1439 1440 1441 1442 1444 1446 1447 1450 1452 1454 1456 1458 1461 1463 1464 1465 1466 1467 1467 1468 1470 1471 1472 1473
1449 1449 1448 1447 1446 1444 1442 1440 1438 1437 1435 1434 1433 1432 1431 1430 1431 1431 1432 1434 1435 1437 1438 1439 1441 1443 1445 1447 1449 1452 1454 1456 1458 1460 1462 1463 1462 1462 1463 1464 1466 1467 1468
1446 1446 1445 1443 1442 1440 1438 1436 1434 1432 1430 1429 1428 1427 1426 1425 1425 1427 1428 1429 1431 1432 1433 1434 1436 1438 1440 1442 1445 1447 1449 1451 1452 1455 1457 1459 1459 1459 1458 1459 1460 1462 1462
1443 1443 1442 1440 1439 1437 1434 1432 1430 1428 1426 1424 1423 1422 1421 1421 1422 1422 1422 1423 1425 1427 1428 1429 1431 1434 1435 1437 1440 1442 1444 1446 1448 1449 1451 1454 1455 1455 1455 1453 1454 1456 1457
1440 1440 1439 1437 1435 1433 1431 1428 1426 1423 1422 1420 1419 1418 1417 1416 1416 1417 1417 1418 1420 1421 1423 1425 1427 1429 1430 1432 1435 1437 1439 1441 1444 1445 1447 1448 1449 1450 1451 1450 1450 1451 1451
1437 1436 1435 1433 1431 1429 1427 1425 1422 1420 1418 1416 1415 1414 1413 1412 1412 1412 1413 1414 1414 1416 1418 1421 1423 1424 1426 1428 1430 1432 1434 1436 1438 1440 1442 1443 1444 1446 1447 1446 1446 1446 1446
1435 1434 1433 1431 1428 1426 1423 1421 1419 1416 1414 1412 1411 1410 1409 1408 1408 1408 1408 1409 1410 1412 1414 1416 1418 1420 1422 1424 1425 1427 1430 1431 1433 1435 1436 1438 1439 1440 1442 1442 1442 1442 1442
1432 1431 1430 1428 1425 1423 1420 1418 1416 1413 1411 1410 1408 1406 1406 1405 1404 1404 1404 1406 1407 1409 1410 1412 1413 1415 1417 1419 1420 1422 1424 1426 1428 1429 1431 1432 1433 1434 1435 1436 1437 1438 1437
1430 1428 1427 1425 1422 1420 1418 1415 1413 1410 1409 1407 1405 1403 1402 1402 1401 1401 1402 1403 1404 1405 1406 1408 1409 1411 1412 1414 1415 1418 1419 1421 1422 1424 1425 1426 1427 1428 1429 1430 1431 1432 1433
1427 1425 1424 1421 1419 1417 1414 1412 1410 1407 1405 1404 1403 1401 1400 1399 1398 1398 1398 1399 1400 1401 1402 1404 1405 1406 1408 1409 1411 1413 1414 1416 1417 1418 1419 1420 1421 1422 1423 1423 1425 1426 1427
1425 1423 1421 1419 1416 1413 1411 1408 1406 1404 1402 1401 1400 1398 1397 1396 1395 1395 1395 1396 1396 1398 1398 1400 1401 1402 1403 1405 1407 1408 1409 1410 1411 1412 1413 1414 1415 1415 1416 1417 1418 1420 1421
1423 1421 1419 1416 1413 1410 1407 1405 1403 1402 1400 1399 1397 1395 1394 1394 1393 1392 1392 1393 1393 1394 1395 1396 1397 1398 1399 1401 1402 1403 1404 1405 1406 1407 1408 1408 1409 1409 1410 1411 1412 1414 1416
1421 1419 1416 1413 1410 1408 1406 1403 1401 1399 1398 1396 1395 1394 1393 1392 1391 1390 1390 1390 1390 1391 1391 1392 1394 1394 1395 1396 1397 1398 1399 1400 1401 1402 1403 1403 1403 1404 1405 1406 1407 1409 1411
1418 1416 1414 1411 1409 1406 1404 1402 1399 1397 1395 1394 1393 1392 1391 1390 1390 1389 1388 1388 1388 1388 1388 1389 1390 1391 1391 1392 1393 1394 1395 1395 1396 1397 1397 1398 1398 1399 1400 1401 1402 1404 1406
1416 1414 1412 1410 1407 1405 1403 1400 1398 1396 1394 1392 1391 1390 1389 1389 1388 1387 1386 1386 1386 1385 1386 1386 1387 1387 1388 1389 1390 1390 1391 1391 1391 1392 1392 1392 1393 1393 1395 1396 1397 1400 1401
1415 1413 1411 1409 1407 1405 1402 1399 1397 1395 1393 1391 1390 1389 1388 1387 1386 1385 1385 1384 1384 1384 1383 1384 1384 1384 1385 1386 1386 1387 1387 1387 1387 1387 1387 1387 1388 1389 1390 1391 1392 1394 1395
1413 1411 1409 1407 1405 1404 1401 1399 1397 1395 1393 1391 1389 1388 1387 1386 1385 1384 1383 1383 1382 1382 1381 1381 1381 1381 1382 1382 1383 1383 1383 1383 1383 1383 1383 1383 1383 1384 1385 1386 1387 1388 1389
1412 1410 1408 1406 1404 1402 1400 1398 1396 1394 1392 1390 1389 1387 1386 1385 1384 1383 1381 1381 1380 1380 1380 1379 1379 1378 1378 1379 1379 1380 1379 1379 1379 1379 1379 1379 1379 1380 1381 1382 1382 1383 1384
1410 1409 1407 1405 1403 1402 1400 1397 1395 1393 1391 1389 1388 1386 1385 1384 1382 1381 1380 1379 1378 1378 1377 1376 1376 1376 1375 1376 1376 1376 1376 1375 1375 1374 1375 1375 1376 1376 1377 1378 1378 1379 1380
1408 1407 1405 1404 1402 1401 1399 1396 1394 1392 1391 1389 1387 1385 1384 1382 1381 1379 1378 1377 1376 1375 1374 1373 1373 1372 1372 1372 1372 1372 1372 1371 1370 1370 1370 1371 1371 1372 1373 1374 1374 1375 1377
1406 1405 1404 1402 1401 1399 1398 1395 1393 1392 1390 1388 1386 1384 1382 1381 1379 1377 1376 1375 1374 1372 1371 1370 1369 1369 1368 1368 1368 1368 1368 1368 1367 1366 1366 1366 1367 1368 1369 1369 1370 1372 1374
1404 1403 1402 1401 1399 1398 1396 1394 1393 1391 1389 1387 1385 1383 1381 1379 1377 1375 1374 1372 1371 1370 1369 1367 1366 1365 1365 1365 1365 1364 1364 1363 1363 1362 1362 1362 1363 1364 1364 1365 1367 1369 1370
1402 1401 1400 1398 1397 1396 1394 1393 1391 1390 1388 1385 1383 1381 1379 1377 1375 1374 1372 1371 1369 1368 1366 1365 1363 1362 1361 1361 1361 1360 1359 1359 1358 1357 1357 1358 1359 1360 1361 1362 1364 1366 1367
1400 1399 1397 1396 1395 1393 1392 1391 1389 1388 1386 1383 1382 1379 1377 1375 1373 1372 1370 1369 1367 1367 1365 1363 1362 1360 1358 1358 1358 1357 1355 1355 1354 1353 1353 1354 1355 1356 1358 1359 1361 1363 1364
1397 1396 1395 1393 1392 1391 1390 1388 1387 1385 1383 1381 1379 1377 1376 1374 1372 1369 1367 1366 1365 1364 1362 1361 1360 1358 1357 1356 1355 1354 1353 1351 1351 1350 1350 1350 1352 1353 1355 1357 1358 1360 1362